Terminal Aerodrome Forecast
Issued by NWS Columbia, SC

Home | Current Version | Previous Version | Text Only | Print | Product List | Glossary On
Versions: 1 2 3 4 5 6 7 8 9 10 11 12 13 14 15 16 17 18 19 20 21 22 23 24 25 26 27 28 29 30 31 32 33 34 35 36 37 38 39 40 41 42 43 44 45 46 47 48 49 50
000
FTUS42 KCAE 201428 AAC
TAFAGS
TAF AMD
KAGS 201428Z 2014/2112 17007KT P6SM OVC040
      TEMPO 2014/2016 OVC012
     FM201700 24010KT P6SM SCT025 BKN050
     FM210000 21004KT P6SM BKN100
     FM210600 VRB03KT 4SM BR OVC050=

USA.gov is the U.S. government's official web portal to all federal, state and local government web resources and services.